Window Rock, AZ

2:17 AM MDT on May 21, 2018 (GMT -0600)
Window Rock

Weather History for KRQE - December, 2013

Change the Weather History Date:

Thursday, December 19, 2013

  Actual Average Record
Temperature  
Mean Temperature 39 °F -  
Max Temperature 50 °F 44 °F 60 °F (1981)
Min Temperature 28 °F 16 °F -11 °F (1945)
Degree Days  
Heating Degree Days 26    
Moisture  
Dew Point 20 °F    
Average Humidity 44    
Maximum Humidity 75    
Minimum Humidity 29    
Precipitation  
Precipitation 0.00 in - - ()
Sea Level Pressure  
Sea Level Pressure 29.67 in    
Wind  
Wind Speed 8 mph (South)    
Max Wind Speed 20 mph    
Max Gust Speed 31 mph    
Visibility 10 miles    
Events      
Averages and records for this station are not official NWS values.
T = Trace of Precipitation, MM = Missing Value Source: NWS Daily Summary

Daily Weather History Graph

Daily Weather History Graph

Search for Another Location

Airport or City:

Astronomy

Dec. 19, 2013 Rise Set
Actual Time 7:21 AM MST 5:05 PM MST
Civil Twilight 6:52 AM MST 5:34 PM MST
Nautical Twilight 6:20 AM MST 6:06 PM MST
Astronomical Twilight 5:49 AM MST 6:37 PM MST
Moon 7:30 PM MST (12/19) 8:45 AM MST (12/19)
Length of Visible Light 10h 41m
Length of Day
9h 44m
Waning Gibbous, 95% of the Moon is Illuminated
Dec 19
Waning Gibbous
Dec 25
Last Quarter
Jan 1
New
Jan 7
First Quarter
Jan 15
Full

Hourly Weather History & Observations

Time (MST) Temp. Windchill Dew Point Humidity Pressure Visibility Wind Dir Wind Speed Gust Speed Precip Events Conditions
12:53 AM 32.0 °F 28.7 °F 24.1 °F 73% 29.77 in 10.0 mi Variable 3.5 mph - N/A   Clear
1:53 AM 41.0 °F 35.2 °F 19.0 °F 41% 29.69 in 10.0 mi South 9.2 mph - N/A   Clear
2:53 AM 43.0 °F 37.7 °F 18.0 °F 37% 29.68 in 10.0 mi SSE 9.2 mph - N/A   Clear
3:53 AM 39.0 °F 34.0 °F 18.0 °F 43% 29.69 in 10.0 mi SE 6.9 mph - N/A   Clear
4:53 AM 41.0 °F 35.8 °F 19.0 °F 41% 29.68 in 10.0 mi SSE 8.1 mph - N/A   Clear
5:53 AM 41.0 °F 34.7 °F 19.0 °F 41% 29.68 in 10.0 mi SSE 10.4 mph - N/A   Clear
6:53 AM 41.0 °F 36.4 °F 19.9 °F 43% 29.68 in 10.0 mi SE 6.9 mph - N/A   Clear
7:53 AM 39.0 °F 34.8 °F 19.9 °F 46% 29.73 in 10.0 mi Variable 5.8 mph - N/A   Clear
8:53 AM 43.0 °F 38.2 °F 19.9 °F 40% 29.74 in 10.0 mi South 8.1 mph - N/A   Clear
9:53 AM 46.0 °F 40.2 °F 21.0 °F 37% 29.75 in 10.0 mi SSW 12.7 mph 20.7 mph N/A   Clear
10:53 AM 46.9 °F - 21.0 °F 36% 29.70 in 10.0 mi SSW 13.8 mph 25.3 mph N/A   Clear
11:53 AM 48.9 °F - 21.0 °F 33% 29.65 in 10.0 mi SSW 19.6 mph 25.3 mph N/A   Clear
12:53 PM 48.9 °F - 19.9 °F 32% 29.63 in 10.0 mi SSW 17.3 mph 29.9 mph N/A   Clear
1:53 PM 50.0 °F - 19.0 °F 29% 29.56 in 10.0 mi SW 19.6 mph 28.8 mph N/A   Clear
2:53 PM 50.0 °F - 19.0 °F 29% 29.56 in 10.0 mi SSW 17.3 mph 31.1 mph N/A   Clear
3:53 PM 46.9 °F - 19.0 °F 33% 29.60 in 10.0 mi SW 16.1 mph - N/A   Clear
4:53 PM 43.0 °F 39.5 °F 19.9 °F 40% 29.62 in 10.0 mi SW 5.8 mph - N/A   Clear
5:53 PM 39.0 °F 34.8 °F 19.9 °F 46% 29.65 in 10.0 mi South 5.8 mph - N/A   Clear
6:53 PM 37.0 °F 34.5 °F 19.9 °F 50% 29.68 in 10.0 mi Variable 3.5 mph - N/A   Mostly Cloudy
7:53 PM 37.9 °F 33.5 °F 19.0 °F 47% 29.68 in 10.0 mi SSW 5.8 mph - N/A   Clear
8:53 PM 36.0 °F - 19.0 °F 50% 29.68 in 10.0 mi Calm Calm - N/A   Scattered Clouds
9:53 PM 33.1 °F - 19.0 °F 56% 29.67 in 10.0 mi Calm Calm - N/A   Partly Cloudy
10:53 PM 28.9 °F - 19.9 °F 69% 29.68 in 10.0 mi Calm Calm - N/A   Clear
11:53 PM 28.0 °F - 21.0 °F 75% 29.66 in 10.0 mi Calm Calm - N/A   Clear